Hourly Data Report for September 17, 2017

All times are specified in Local Standard Time (LST). Add 1 hour to adjust for Daylight Saving Time where and when it is observed.

ST. PETERS
PRINCE EDWARD ISLAND

46°27'01.000" N
62°34'33.000" W
29.70 m
8300562
71310
ZSP

Download Data

Hourly Data (September 2017)
Hourly Data Report for September 17, 2017
Temp Definition
°C
Dew Point Temp Definition
°C
Rel Hum Definition
%
Wind Dir Definition
10's deg

Wind Spd Definition
km/h
Visibility Definition
km
Stn Press Definition
kPa
Hmdx Definition


Wind Chill Definition


Weather Definition


TIME
00:00 13.9 11.0 83 3 8   101.93     LegendNANA
01:00 13.7 10.7 83 5 5   101.93     LegendNANA
02:00 13.2 10.6 84 8 2   101.90     LegendNANA
03:00 13.2 10.7 85 0 1   101.88     LegendNANA
04:00 12.9 11.0 88 6 3   101.89     LegendNANA
05:00 12.9 11.1 89 8 2   101.92     LegendNANA
06:00 13.0 10.9 87 10 2   101.95     LegendNANA
07:00 13.4 11.1 86 3 2   102.01     LegendNANA
08:00 14.3 10.9 80 7 3   102.04     LegendNANA
09:00 15.1 11.3 78 9 3   102.03     LegendNANA
10:00 15.1 11.1 77 7 5   102.08     LegendNANA
11:00 15.4 11.8 79 12 4   102.05     LegendNANA
12:00 15.7 10.7 72 7 7   102.02     LegendNANA
13:00 16.1 10.8 71 9 5   101.96     LegendNANA
14:00 15.5 11.4 77 5 10   101.93     LegendNANA
15:00 15.6 11.5 77 7 7   101.93     LegendNANA
16:00 15.2 11.4 78 7 8   101.95     LegendNANA
17:00 15.1 11.4 79 8 6   101.96     LegendNANA
18:00 14.6 11.0 79 10 2   101.95     LegendNANA
19:00 14.3 11.4 83 8 4   101.97     LegendNANA
20:00 14.3 11.3 82 8 6   102.01     LegendNANA
21:00 14.2 11.2 82 9 3   102.02     LegendNANA
22:00 14.2 11.4 83 7 4   102.03     LegendNANA
23:00 14.5 11.7 84 7 5   102.03     LegendNANA

Notes on Data Quality.

Legend

  • E = Estimated
  • M = Missing
  • NA = Not Available
  • ‡ = Partner data that is not subject to review by the National Climate Archives
Date modified: